Regional Weather Roundup
Issued by NWS Newport/Morehead, NC

Current Version | Previous Version | Text Only | Print | Product List | Glossary On
Versions: 1 2 3 4 5 6 7 8 9 10 11 12 13 14 15 16 17 18 19 20 21 22 23 24 25 26 27 28 29 30 31 32 33 34 35 36 37 38 39 40 41 42 43 44 45 46 47 48 49 50
000
ASUS42 KMHX 040622
RWRMHX
WEATHER ROUNDUP FOR EASTERN NORTH CAROLINA
NATIONAL WEATHER SERVICE NEWPORT/MOREHEAD CITY NC
200 AM EDT TUE OCT 04 2022

NOTE: "FAIR" INDICATES FEW OR NO CLOUDS BELOW 12,000 FEET
WITH NO SIGNIFICANT WEATHER AND/OR OBSTRUCTIONS TO VISIBILITY

NCZ015>017-031-032-045>047-102-103-040700-
NORTH COAST

CITY           SKY/WX    TMP DP  RH WIND       PRES   REMARKS
EDENTON        CLOUDY    52  52  99 N14       30.04S FOG
ELIZABETH CITY CLOUDY    51  50  96 NW12      30.00F
KITTY HAWK     CLOUDY    55  51  87 N13G22    29.95F
MANTEO         CLOUDY    55  50  84 N17       29.98S

$$

NCZ045>047-081-094-103-104-040700-
CENTRAL COAST

CITY           SKY/WX    TMP DP  RH WIND       PRES   REMARKS
FRISCO         CLOUDY    56  53  90 NW10G22   29.97F

$$

NCZ095-097-098-100-101-040700-
SOUTHERN COAST

CITY           SKY/WX    TMP DP  RH WIND       PRES   REMARKS
PINEY ISLAND   NOT AVBL
BEAUFORT       CLOUDY    53  49  86 N12G22    30.01F
CAPE CARTERET  CLOUDY    55  47  74 N9G18     30.03F
JACKSONVILLE   CLOUDY    51  48  89 N14       30.04F
WILMINGTON     MOCLDY    52  47  83 N7        30.06S


$$

NCZ011>013-027>030-043-044-078>080-089-090>093-098-040700-
COASTAL PLAIN

CITY           SKY/WX    TMP DP  RH WIND       PRES   REMARKS
AHOSKIE        DRIZZLE   47  47 100 N9        30.07F
ROCKY MOUNT    CLOUDY    49  45  86 N10       30.09F
GREENVILLE     CLOUDY    50  48  93 N8        30.07S
WASHINGTON     CLOUDY    50  45  83 NW9       30.06S
GOLDSBORO      CLOUDY    50  44  82 N6        30.06S
KINSTON        CLOUDY    50  47  88 N7        30.08S
NEW BERN       CLOUDY    52  47  83 N10       30.05F
HAVELOCK       NOT AVBL
KENANSVILLE    CLOUDY    50  46  87 N8        30.08F
RICHLANDS      CLOUDY    52  46  82 N7        30.07F
CLINTON        CLOUDY    51  48  88 N9        30.09F
ELIZABETHTOWN  CLOUDY    51  46  82 N7        30.09S
WHITEVILLE     CLOUDY    53  46  78 N9        30.09S

$$

AMZ130-135-150-152-154-156-158-170-250-252-270-ANZ085-086-088-633-658-670-040700-
MARINE OBSERVATIONS

STATION/POSITION TIME  TEMP    WIND        PRES    WAVE   SWELL
                       AIR SEA DIR/SP/G            HT/PER HT/PER
                 (UTC) (F)     (DEG/KT/KT) (MB)    (FT/S) (FT/S)
64 E VA BEACH    NOT AVBL
64 E VA BEACH    0530   59 68                N/A    16/ 9  10/13
DUCK PIER        0542   57 67  350/ 24/ 30 1014.3
2 E DUCK         0556      69                N/A    10/ 8   5/13
10 NE DUCK       0556      70                N/A    13/11   8/11
OREGON INLET     0542   55 70  340/ 15/ 25 1014.4
13E OREGON INLT  0556      71                N/A    12/13  11/13
13E CAPE HATTERA 0530      72                N/A    12/13   8/13
HATTERAS CG      0542   57 67  340/ 23/ 29 1015.2
DIAMOND BUOY     0600          340/ 23/ 27 1013.9
CAPE LOOKOUT     0600   54     340/ 11/ 18 1017.0
BEAUFORT LAB     0542   54 69  350/ 17/ 21 1015.6
30 SE NEW RVR IN NOT AVBL
30 SE NEW RVR IN 0556      78                N/A     6/17   3/17
27 SE WRIGHTSVLE 0508   59 77   10/ 17/ 27 1016.7
5 SE WRIGHTSVLE  0508   56 73   10/ 16/ 23   N/A
27 SE WRIGHTSVL  0508   59 77   10/ 17/ 27 1016.7
FRYING PAN BUOY  0600   62      10/ 16/ 19 1016.6
225 S CAPE HAT   0600   75     360/ 12/ 16 1011.0
41 SE CHARLESTON 0600   65     360/ 17/ 23 1017.2

$$



USA.gov is the U.S. government's official web portal to all federal, state and local government web resources and services.